CW1120 Weather Reports


time (UTC)temp
F
wind
direction
speed
knots
gust
knots
rain 1hr
in
rain 24hr
in
rain mn
in
humidity
%
barometer
mb
20260505173127 49 285 7.0 8.7 0.00 0.00 0.00 56 1011.2
20260505172150 49 254 6.1 8.7 0.00 0.00 0.00 58 1011.2
20260505171144 49 308 4.3 9.6 0.00 0.00 0.00 60 1011.1
20260505170138 49 273 7.0 9.6 0.00 0.00 0.00 54 1011.1
20260505165131 49 250 7.8 10.4 0.00 0.00 0.00 59 1011.1
20260505164210 50 271 7.0 10.4 0.00 0.00 0.00 57 1011.1
20260505163202 49 248 7.8 11.3 0.00 0.00 0.00 59 1011.0
20260505162146 50 252 6.1 11.3 0.00 0.00 0.00 54 1011.0
20260505161142 50 254 7.8 11.3 0.00 0.00 0.00 55 1011.1
20260505160137 50 272 7.0 12.2 0.00 0.00 0.00 54 1011.2
20260505153127 51 284 9.6 11.3 0.00 0.00 0.00 52 1011.2
20260505152143 50 273 7.8 10.4 0.00 0.00 0.00 53 1011.2
20260505151133 50 275 5.2 11.3 0.00 0.00 0.00 51 1011.1
20260505150151 49 283 8.7 12.2 0.00 0.00 0.00 55 1011.2
20260505140146 49 284 7.8 13.0 0.00 0.00 0.00 52 1011.3
20260505130154 49 287 9.6 17.4 0.00 0.00 0.00 52 1011.2
20260505124146 49 290 10.4 17.4 0.00 0.00 0.00 53 1011.4
20260505123140 49 297 10.4 15.6 0.00 0.00 0.00 58 1011.4
20260505122130 49 297 6.1 14.8 0.00 0.00 0.00 58 1011.4
20260505121152 49 329 10.4 17.4 0.00 0.00 0.00 56 1011.4
20260505120127 49 328 8.7 13.9 0.00 0.00 0.00 59 1011.3
20260505115140 49 286 9.6 15.6 0.00 0.00 0.00 60 1011.3
20260505114131 49 276 8.7 17.4 0.00 0.00 0.00 59 1011.4
20260505113134 49 240 10.4 14.8 0.00 0.00 0.00 59 1011.3
20260505112127 49 280 8.7 14.8 0.00 0.00 0.00 60 1011.3
20260505111150 49 284 8.7 14.8 0.00 0.00 0.00 59 1011.3
20260505110142 49 294 9.6 13.9 0.00 0.00 0.00 56 1011.3
20260505102137 49 303 7.0 14.8 0.00 0.00 0.00 55 1011.1
20260505101156 49 271 7.0 14.8 0.00 0.00 0.00 59 1011.2
20260505100128 48 284 8.7 14.8 0.00 0.00 0.00 57 1011.1
20260505095127 48 269 9.6 17.4 0.00 0.00 0.00 59 1011.2
20260505094139 48 279 11.3 15.6 0.00 0.00 0.00 57 1011.3
20260505093132 48 278 7.8 13.0 0.00 0.00 0.00 55 1011.0
20260505092132 48 252 8.7 13.9 0.00 0.00 0.00 57 1011.0
20260505091145 48 315 4.3 14.8 0.00 0.00 0.00 55 1011.0
20260505090137 48 307 12.2 15.6 0.00 0.00 0.00 55 1011.1
20260505085130 48 267 10.4 14.8 0.00 0.00 0.00 53 1010.9
20260505084152 48 290 7.0 13.0 0.00 0.00 0.00 54 1010.8
20260505083204 48 281 7.8 13.0 0.00 0.00 0.00 53 1010.6
20260505082141 48 308 6.1 13.0 0.00 0.00 0.00 54 1010.4
20260505081127 48 312 7.0 13.9 0.00 0.00 0.00 53 1010.4
20260505080145 48 275 7.0 13.9 0.00 0.00 0.00 55 1010.4
20260505075204 48 290 8.7 13.9 0.00 0.00 0.00 56 1010.3
20260505074134 47 348 4.3 15.6 0.00 0.00 0.00 52 1010.3
20260505073145 47 317 5.2 16.5 0.00 0.00 0.00 54 1010.3
20260505072147 48 297 7.0 16.5 0.00 0.00 0.00 52 1010.3
20260505071155 48 303 7.8 13.9 0.00 0.00 0.00 55 1010.2
20260505070138 48 275 4.3 9.6 0.00 0.00 0.00 54 1010.1
20260505065152 48 325 5.2 9.6 0.00 0.00 0.00 55 1010.1
20260505064134 48 325 5.2 8.7 0.00 0.00 0.00 55 1010.0
20260505063145 48 325 4.3 11.3 0.00 0.00 0.00 54 1009.9
20260505062133 47 339 5.2 9.6 0.00 0.00 0.00 57 1009.9
20260505061132 46 303 4.3 9.6 0.00 0.00 0.00 56 1009.9
20260505060144 46 313 7.0 13.0 0.00 0.00 0.00 58 1009.9
20260505055147 46 333 7.8 12.2 0.00 0.00 0.00 59 1009.8
20260505054136 47 284 3.5 7.8 0.00 0.00 0.00 60 1009.8
20260505053129 46 17 0.0 5.2 0.00 0.00 0.00 61 1009.7
20260505052149 45 15 0.9 4.3 0.00 0.00 0.00 62 1009.6
20260505051140 45 328 0.0 7.0 0.00 0.00 0.00 64 1009.5
20260505050126 43 33 1.7 8.7 0.00 0.00 0.00 73 1009.4
20260505041141 40 5 1.7 4.3 0.00 0.00 0.00 77 1009.1
20260505040140 41 19 0.0 2.6 0.00 0.00 0.00 75 1009.0
20260505035133 42 9 1.7 3.5 0.00 0.00 0.00 73 1008.9
20260505034145 43 355 0.9 6.1 0.00 0.00 0.00 73 1008.8
20260505033148 43 322 1.7 4.3 0.00 0.00 0.00 73 1008.8
20260505032133 43 338 2.6 7.0 0.00 0.00 0.00 73 1008.6
20260505031153 44 323 2.6 7.8 0.00 0.00 0.00 73 1008.6
20260505030147 44 317 3.5 7.8 0.00 0.00 0.00 73 1008.5
20260505025134 44 327 3.5 10.4 0.00 0.00 0.00 73 1008.4
20260505024155 44 319 4.3 8.7 0.00 0.00 0.00 74 1008.4
20260505023126 45 9 4.3 10.4 0.00 0.00 0.00 74 1008.6
20260505022137 45 303 5.2 12.2 0.00 0.00 0.00 75 1008.5
20260505021128 46 297 6.1 14.8 0.00 0.00 0.00 75 1008.5
20260505020200 46 325 10.4 15.6 0.00 0.00 0.00 76 1008.4
20260505015211 46 311 7.8 16.5 0.00 0.00 0.00 76 1008.4
20260505014131 46 275 9.6 18.2 0.00 0.00 0.00 77 1008.4
20260505013140 46 313 12.2 18.2 0.00 0.00 0.00 78 1008.3
20260505012137 46 310 10.4 14.8 0.00 0.00 0.00 79 1008.3
20260505011126 46 296 10.4 17.4 0.00 0.00 0.00 85 1008.2
20260505010136 47 283 12.2 22.6 0.00 0.00 0.00 90 1008.2
20260505005139 47 277 14.8 22.6 0.00 0.00 0.00 90 1008.3
20260505004150 47 252 13.9 22.6 0.00 0.00 0.00 90 1008.3
20260505003139 47 289 14.8 24.3 0.00 0.00 0.00 91 1008.3
20260505002132 47 273 15.6 23.5 0.00 0.00 0.00 91 1008.3
20260505001127 47 288 18.2 24.3 0.00 0.00 0.00 91 1008.2
20260505000136 47 293 14.8 24.3 0.00 0.00 0.00 91 1008.1
20260504235134 47 285 19.1 26.1 0.00 0.00 0.00 91 1008.1
20260504234139 48 288 16.5 25.2 0.00 0.00 0.00 90 1008.2
20260504233132 48 286 15.6 28.7 0.00 0.00 0.00 90 1008.0
20260504232150 48 297 18.2 26.1 0.00 0.00 0.00 90 1008.0
20260504231149 48 269 13.0 22.6 0.00 0.00 0.00 90 1008.2
20260504230200 48 277 15.6 22.6 0.00 0.00 0.00 91 1008.2
20260504225141 48 271 15.6 28.7 0.00 0.00 0.00 90 1008.1
20260504224133 48 273 16.5 25.2 0.00 0.00 0.00 90 1007.9
20260504223127 48 252 17.4 28.7 0.00 0.00 0.00 90 1007.9
20260504222151 48 269 17.4 26.9 0.00 0.00 0.00 90 1008.0
20260504221127 48 281 19.1 26.1 0.00 0.00 0.00 89 1008.0
20260504220150 48 267 18.2 26.1 0.00 0.00 0.00 90 1007.9
20260504215204 48 291 16.5 26.1 0.00 0.00 0.00 90 1007.9
20260504214136 49 311 19.1 25.2 0.00 0.00 0.00 91 1007.9
20260504213159 49 263 17.4 23.5 0.00 0.00 0.00 91 1007.9
20260504212133 49 279 16.5 26.1 0.00 0.00 0.00 91 1007.9
20260504211138 49 254 14.8 25.2 0.00 0.00 0.00 91 1007.9
20260504210153 49 260 15.6 25.2 0.00 0.00 0.00 90 1007.7
20260504205132 49 261 15.6 26.9 0.00 0.00 0.00 90 1007.9
20260504204145 49 247 17.4 26.1 0.00 0.00 0.00 91 1007.9
20260504203135 49 265 19.1 29.5 0.00 0.00 0.00 91 1007.8
20260504202138 49 292 18.2 26.1 0.00 0.00 0.00 91 1007.9
20260504201133 49 265 20.0 26.9 0.00 0.00 0.00 91 1007.9
20260504200158 49 273 20.0 26.1 0.00 0.00 0.00 92 1007.9
20260504195129 49 263 21.7 29.5 0.00 0.00 0.00 91 1007.9
20260504194130 49 245 18.2 28.7 0.00 0.00 0.00 91 1007.8
20260504193143 49 256 24.3 28.7 0.00 0.00 0.00 91 1007.8
20260504192147 49 248 21.7 27.8 0.00 0.00 0.00 91 1007.8
20260504191143 49 246 16.5 27.8 0.00 0.00 0.00 91 1007.7
20260504190134 49 278 19.1 28.7 0.00 0.00 0.00 91 1007.7
20260504185128 49 254 19.1 26.9 0.00 0.00 0.00 91 1007.7
20260504184145 49 247 19.1 26.1 0.00 0.00 0.00 91 1007.8
20260504183138 50 251 20.9 25.2 0.00 0.00 0.00 90 1007.8
20260504182142 50 248 20.0 27.8 0.00 0.00 0.00 90 1007.7
20260504181138 50 258 20.9 26.1 0.00 0.00 0.00 89 1007.7
20260504180141 50 250 15.6 25.2 0.00 0.00 0.00 89 1007.7
20260504175135 50 263 18.2 26.9 0.00 0.00 0.00 88 1007.7
20260504174129 51 248 20.9 27.8 0.00 0.00 0.00 89 1007.9